Aérodrome :
LOGIN :

S'inscrire | Disclaimer

   EN    FR    IT 

 










Légende :    VFR   VFR Marginal   IFR   IFR Intensif   IFR Très Intensif
Visi : 
Plafond : 
>= 8 km
>= 3000ft
5 à 8 km
1000 à 3000 ft
1500m à 5 km
500 à 1000 ft
800 à 1500m
200 à 500 ft
< 800m
< 200 ft
Symboles :   Orages  Brouillard  Fortes neiges  Fortes précipitations  Vent > 20 kt
SIGMETs :   Divers  Orages  Givrage  Turbulence  Onde Orograph.  Cendres Volcan.






- Altitude de l'aérodrome : 290 ft
- Code IATA : LAI


LFRO - Lannion

DERNIER METAR :
  • 190200Z AUTO 29008KT 9999 SCT015 SCT021 BKN100 14/12 Q1016

METARs EXPIRÉS :
  • 190130Z AUTO 29009KT 9999 SCT017 BKN100 BKN130 14/13 Q1016
  • 190100Z AUTO 30005KT 9999 FEW015 BKN120 14/13 Q1016
  • 190030Z AUTO 30006KT 270V330 9999 BKN015 BKN100 15/13 Q1016
  • 190000Z AUTO 31007KT 9999 FEW016 BKN062 OVC100 15/13 Q1016
  • 182330Z AUTO 31011KT 290V350 9999 BKN014 BKN020 OVC032 16/14 Q1016

Prévision TAF périmée.



MET'MAP, la Météo Aéronautique d'un coup d'oeil ! - Copyright ORBIFLY Décembre 2007 - Disclaimer

ORBIFLY MET'MAP TEAM :

Programmation & Développement : Alexandra Zaïnal
Sur une idée originale de : Baudouin d'Aumeries
Assistance à la programmation : Marc-Olivier Méhu
Soutien technique & logistique : Manuel Goepfert

Contact : metmap@orbifly.com




SOURCES & CREDITS :

   NOAA